Location: Golden Pond Observatory
(36.7773°N, 88.0631°W)
Time: 17:18:26
(UTC-06:00)

Hubble Space Telescope - Pass Details

Date: 23 November 2019
Orbit: 536 x 540 km, 28.5° (Epoch: 08 December)

Event Time Altitude Azimuth Distance (km) Brightness Sun altitude
Rises 19:22:03 0° 256° (WSW) 2,670 5.4 -32.4°
Reaches altitude 10° 19:24:44 10° 240° (WSW) 1,779 4.1 -33.0°
Enters shadow 19:25:30 14° 231° (SW) 1,568 3.6 -33.1°
